LIPELIPR

Guest
Details From LIPE - Bologna
To LIPR - Rimini Mil
Flight Number -
Tags Routegen Generated
Created
Modified
Stats Distance 63 nm / 117 km
Max Altitude 300 ft / 91 m
Waypoints 7
Social Downloads 2
Likes 0
Share VATSIM

Download

Looking for another format? Having issues loading an existing format? Contact us
Advertisement - Login to hide

Notes

Departing runway 11 LIPE. Arriving runway 12 LIPR.

Route

LIPE +44.50_+011.39 +44.33_+011.85 +44.13_+012.40 +44.12_+012.42 +44.12_+012.44 LIPR

ID Type Via Altitude (ft/m) Position (lat/lon) Dist (leg/tot) Name
O LIPE APT - 0 / 0 44.52977 / 11.30442 - / 0 nm
+44.50_+011.39 DME - 300 / 91 44.49710 / 11.39497 4 / 4 nm
+44.33_+011.85 DME - 300 / 91 44.33396 / 11.84563 21 / 26 nm
+44.13_+012.40 DME - 300 / 91 44.13173 / 12.40290 26 / 52 nm
+44.12_+012.42 DME - 300 / 91 44.12498 / 12.42074 0 / 53 nm
+44.12_+012.44 DME - 300 / 91 44.11714 / 12.43769 0 / 54 nm
O LIPR APT - 0 / 0 44.02853 / 12.59696 8 / 63 nm

Altitude Profile

Advertisement - Login to hide

LIPE

Details ICAO LIPE (BLQ)
Name Bologna Guglielmo Marconi
Region Italy
Timezone Europe/Rome (UTC+2.0)
Stats Elevation 123 ft / 37 m (AMSL)
Location 44.535600° 11.288300°
Runways 1
Magnetic Variation 3.123° E

METAR

LIPE 152250Z VRB03KT CAVOK 16/13 Q1011

Decode

TAF

TAF LIPE 151700Z 1518/1618 11010KT 9999 SCT030 TEMPO 1518/1520 TSRA BECMG 1519/1521 22008KT BECMG 1606/1608 VRB05KT

Decode

Departure Runways

ID Width Length Bearing (true/mag) Surface Threshold Overrun Markings Lighting
12 148 ft / 45 m 9,202 ft / 2,805 m 116.79° / 113.67° ASPHALT 1,017 ft / 310 m 0 ft / 0 m PREC-APP CENTERLINE EDGE THRESHOLD ALSF-I REIL-OMNI
30 148 ft / 45 m 9,202 ft / 2,805 m 296.81° / 293.69° ASPHALT 1,194 ft / 364 m 174 ft / 53 m PREC-APP CENTERLINE EDGE THRESHOLD SALS REIL-OMNI

LIPR

Details ICAO LIPR (RMI)
Name Rimini Mil
Region Italy
Timezone Europe/Rome (UTC+2.0)
Stats Elevation 41 ft / 12 m (AMSL)
Location 44.020300° 12.611700°
Runways 1
Magnetic Variation 3.369° E

METAR

LIPR 152250Z AUTO 19005KT 9999 FEW050 19/15 Q1012

Decode

TAF

Not found

Destination Runways

ID Width Length Bearing (true/mag) Surface Threshold Overrun Markings Lighting
13 148 ft / 45 m 9,818 ft / 2,992 m 127.79° / 124.42° ASPHALT 1,030 ft / 314 m 846 ft / 258 m PREC-APP EDGE THRESHOLD CALVERT-ILS REIL-OMNI
31 148 ft / 45 m 9,818 ft / 2,992 m 307.81° / 304.44° ASPHALT 1,006 ft / 307 m 376 ft / 115 m PREC-APP EDGE THRESHOLD CALVERT-ILS REIL-OMNI

Approach Navaids

Runway Type Ident Frequency Range Bearing (true/mag) Slope Elevation
31 GS MIR 109.30 MHz 10 nm / 19 km 308.60° / 305.23 ° 3.00° 41 ft / 12 m (AMSL)
31 OM OM - - 307.80° / 304.43 ° - 41 ft / 12 m (AMSL)
31 LOC-ILS MIR 109.30 MHz 18 nm / 33 km 307.77° / 304.40 ° - 41 ft / 12 m (AMSL)
31 MM MM - - 307.80° / 304.43 ° - 41 ft / 12 m (AMSL)

Popular Alternatives